Pittsfield, MA

6:02 AM EST on December 13, 2019 (GMT -0500)
Pittsfield Municipal

Weather History for KPSF - August, 2019

Change the Weather History Date:

Friday, August 9, 2019

  Actual Average Record
Temperature  
Mean Temperature 70 °F 67 °F  
Max Temperature 79 °F 78 °F 93 °F (2001)
Min Temperature 61 °F 57 °F 46 °F (1948)
Degree Days  
Heating Degree Days 0 1  
Month to date heating degree days 0 9  
Since 1 June heating degree days 67 141  
Since 1 July heating degree days 0 40  
Cooling Degree Days 5 4  
Month to date cooling degree days 40 36  
Year to date cooling degree days 316 213  
Since 1 June cooling degree days 310 200  
Growing Degree Days 20 (Base 50)    
Moisture  
Dew Point 57 °F    
Average Humidity 65    
Maximum Humidity 90    
Minimum Humidity 40    
Precipitation  
Precipitation T in 0.14 in 1.89 in (2013)
Month to date precipitation 0.48 1.31  
Year to date precipitation 26.62 27.00  
Sea Level Pressure  
Sea Level Pressure 29.69 in    
Wind  
Wind Speed 9 mph (West)    
Max Wind Speed 17 mph    
Max Gust Speed 24 mph    
Visibility 10 miles    
Events Rain    
T = Trace of Precipitation, MM = Missing Value Source: NWS Daily Summary

Daily Weather History Graph

Daily Weather History Graph

Search for Another Location

Airport or City:

Astronomy

Aug. 09, 2019 Rise Set
Actual Time 5:53 AM EDT 8:03 PM EDT
Civil Twilight 5:22 AM EDT 8:33 PM EDT
Nautical Twilight 4:44 AM EDT 9:11 PM EDT
Astronomical Twilight 4:02 AM EDT 9:53 PM EDT
Moon 3:42 PM EDT (8/9) 12:48 AM EDT (8/9)
Length of Visible Light 15h 11m
Length of Day
14h 09m
Waxing Gibbous, 70% of the Moon is Illuminated
Aug 9
Waxing Gibbous
Aug 15
Full
Aug 23
Last Quarter
Aug 30
New
Sep 5
First Quarter

Hourly Weather History & Observations

Time (EDT) Temp. Dew Point Humidity Pressure Visibility Wind Dir Wind Speed Gust Speed Precip Events Conditions
12:54 AM 62.1 °F 59.0 °F 90% 29.62 in 10.0 mi Calm Calm - N/A   Mostly Cloudy
1:50 AM 62.6 °F 59.0 °F 88% 29.71 in 10.0 mi Calm Calm - N/A   Mostly Cloudy
1:54 AM 62.1 °F 59.0 °F 90% 29.63 in 10.0 mi Calm Calm - N/A   Mostly Cloudy
2:54 AM 66.0 °F 60.1 °F 81% 29.64 in 10.0 mi SW 6.9 mph - N/A   Overcast
3:54 AM 66.0 °F 61.0 °F 84% 29.63 in 10.0 mi WSW 10.4 mph - N/A   Overcast
4:06 AM 66.0 °F 61.0 °F 84% 29.72 in 10.0 mi WSW 9.2 mph - N/A   Overcast
4:13 AM 64.9 °F 60.1 °F 84% 29.72 in 10.0 mi WSW 8.1 mph - N/A   Overcast
4:54 AM 64.9 °F 60.1 °F 84% 29.64 in 10.0 mi West 9.2 mph - N/A   Mostly Cloudy
5:54 AM 64.9 °F 60.1 °F 84% 29.65 in 10.0 mi West 4.6 mph - N/A   Mostly Cloudy
6:54 AM 64.9 °F 60.1 °F 84% 29.69 in 10.0 mi WSW 8.1 mph - N/A   Mostly Cloudy
7:31 AM 64.9 °F 60.1 °F 84% 29.76 in 10.0 mi WSW 9.2 mph - N/A   Scattered Clouds
7:54 AM 66.9 °F 60.1 °F 79% 29.70 in 10.0 mi West 10.4 mph - N/A   Clear
8:41 AM 66.9 °F 60.1 °F 79% 29.77 in 10.0 mi WNW 8.1 mph - N/A   Mostly Cloudy
8:54 AM 66.9 °F 60.1 °F 79% 29.71 in 10.0 mi Variable 6.9 mph - N/A   Mostly Cloudy
9:07 AM 69.1 °F 60.1 °F 73% 29.77 in 10.0 mi West 9.2 mph - N/A   Scattered Clouds
9:54 AM 72.0 °F 59.0 °F 64% 29.70 in 10.0 mi West 10.4 mph 18.4 mph N/A   Scattered Clouds
10:54 AM 72.0 °F 59.0 °F 64% 29.70 in 10.0 mi WNW 9.2 mph - N/A   Scattered Clouds
11:54 AM 75.0 °F 57.0 °F 53% 29.69 in 10.0 mi WNW 13.8 mph 23.0 mph N/A   Mostly Cloudy
12:54 PM 75.9 °F 55.9 °F 50% 29.68 in 10.0 mi West 13.8 mph 21.9 mph N/A   Partly Cloudy
1:54 PM 78.1 °F 53.1 °F 42% 29.67 in 10.0 mi WNW 12.7 mph 20.7 mph N/A   Partly Cloudy
2:54 PM 78.1 °F 53.1 °F 42% 29.66 in 10.0 mi WNW 17.3 mph - N/A   Partly Cloudy
3:54 PM 77.0 °F 54.0 °F 45% 29.66 in 10.0 mi West 16.1 mph - N/A   Partly Cloudy
4:54 PM 77.0 °F 52.0 °F 42% 29.66 in 10.0 mi WNW 13.8 mph - N/A   Clear
5:54 PM 75.0 °F 50.0 °F 41% 29.68 in 10.0 mi WNW 12.7 mph - N/A   Clear
6:54 PM 73.0 °F 52.0 °F 48% 29.68 in 10.0 mi WNW 6.9 mph - N/A   Clear
7:54 PM 69.1 °F 50.0 °F 51% 29.70 in 10.0 mi WNW 8.1 mph - N/A   Clear
8:54 PM 66.0 °F 52.0 °F 60% 29.72 in 10.0 mi WSW 4.6 mph - N/A   Clear
9:54 PM 66.0 °F 50.0 °F 56% 29.73 in 10.0 mi WNW 12.7 mph 18.4 mph N/A   Clear
10:54 PM 64.0 °F 48.9 °F 58% 29.73 in 10.0 mi Calm Calm - N/A   Scattered Clouds
11:54 PM 63.0 °F 51.1 °F 65% 29.72 in 10.0 mi West 8.1 mph - 0.00 in Rain Light Rain